[Iaude] MPEC M40: 2022 MT [a=2.20,e=0.53,i=33.3,H=22.7]

mpec at marsden.cfa.harvard.edu mpec at marsden.cfa.harvard.edu
Thu Jun 23 06:10:39 EDT 2022


M.P.E.C. 2022-M40                                 Issued 2022 June 23, 10:09 UT

     The Minor Planet Electronic Circulars contain information on unusual
         minor planets and routine data on comets.  They are published
    on behalf of Division F of the International Astronomical Union by the
          Minor Planet Center, Smithsonian Astrophysical Observatory,
                          Cambridge, MA 02138, U.S.A.

             Prepared using the Tamkin Foundation Computer Network

                              MPC at CFA.HARVARD.EDU
            URL https://www.minorplanetcenter.net/    ISSN 1523-6714

                                    2022 MT                                     


Observations:
     K22M00T* C2022 06 19.36724916 35 42.014-00 54 05.12         20.99wUEM040F52
     K22M00T  C2022 06 19.37817916 35 42.334-00 53 02.75         21.26wUEM040F52
     K22M00T  C2022 06 19.38907216 35 42.636-00 52 00.79         21.19wUEM040F52
     K22M00T  C2022 06 19.39999716 35 42.972-00 50 58.21         21.23wUEM040F52
     K22M00T KC2022 06 20.18343716 36 16.86 +00 20 43.2                uEM040H21
     K22M00T KC2022 06 20.18691516 36 16.93 +00 21 01.5          21.3 VuEM040H21
     K22M00T KC2022 06 20.19132016 36 17.10 +00 21 25.1          20.9 VuEM040H21
     K22M00T KC2022 06 20.21946 16 36 18.22 +00 23 55.1          20.8 rqEM040H36
     K22M00T KC2022 06 20.23541 16 36 18.67 +00 25 19.2          21.1 rqEM040H36
     K22M00T KC2022 06 20.25137 16 36 19.17 +00 26 42.4          20.8 rqEM040H36
     K22M00T ^C2022 06 20.42511516 36 26.303+00 42 04.10         21.74GVEM040568
     K22M00T ^C2022 06 20.42612816 36 26.334+00 42 09.37         21.20GVEM040568
     K22M00T ^C2022 06 20.42710616 36 26.361+00 42 14.41         21.73GVEM040568
     K22M00T KC2022 06 21.20545316 36 59.12 +01 47 17.5          21.3 VuEM040H21
     K22M00T KC2022 06 21.20821016 36 59.22 +01 47 31.2          20.9 VuEM040H21
     K22M00T KC2022 06 21.21081716 36 59.29 +01 47 44.0          21.2 VuEM040H21
     K22M00T KC2022 06 23.22938016 38 20.02 +04 17 28.2          20.9 VuEM040H21
     K22M00T KC2022 06 23.23401416 38 20.15 +04 17 47.3          21.4 VuEM040H21
     K22M00T KC2022 06 23.23705616 38 20.22 +04 17 59.4          21.6 VuEM040H21
     K22M00T KC2022 06 23.34603416 38 24.025+04 25 23.84         21.52GVEM040I52
     K22M00T KC2022 06 23.35330516 38 24.241+04 25 52.93         22.10GVEM040I52
     K22M00T KC2022 06 23.35931316 38 24.443+04 26 16.76         22.31GVEM040I52
     K22M00T KC2022 06 23.36143916 38 24.518+04 26 25.26         22.23GVEM040I52

Observer details:
568 Mauna Kea.  Observers R. Wainscoat, H. Januszewski, T. Burdullis.
    Measurers R. Weryk, R. Wainscoat.  3.6-m Canada-France-Hawaii Telescope +
    CCD.
F52 Pan-STARRS 2, Haleakala.  Observers J. Bulger, T. Lowe, A. Schultz, I.
    Smith.  Measurers K. Chambers, S. Chastel, T. de Boer, J. Fairlamb, H.
    Gao, M. Huber, C.-C. Lin, E. Magnier, Y. Ramanjooloo, R. Wainscoat, R.
    Weryk.  1.8-m Ritchey-Chretien + CCD.
H21 Astronomical Research Observatory, Westfield.  Observer R. Holmes.
    Measurers T. Linder, R. Holmes, L. Horn.  1.3-m f/4.0 astrograph + CCD.
H36 Sandlot Observatory, Scranton.  Observer G. Hug.  .56 meter reflector +
    CCD.
I52 Steward Observatory, Mt. Lemmon Station.  Observer R. A. Kowalski.
    Measurers E. J. Christensen, D. Fay, J. B. Fazekas, D. C. Fuls, A. R.
    Gibbs, A. D. Grauer, H. Groeller, J. K. Hogan, R. A. Kowalski, S. M.
    Larson, G. J. Leonard, D. Rankin, R. L. Seaman, A. Serrano, F. C. Shelly,
    K. W. Wierzchos.  1.0-m prime focus + CCD.

Orbital elements:
2022 MT                                                  Earth MOID = 0.1486 AU
Epoch 2022 Aug. 9.0 TT = JDT 2459800.5                  Veres                   
M  32.43915              (2000.0)            P               Q                  
n   0.30134220     Peri.  309.02810     -0.76756291     +0.35079376             
a   2.2034139      Node   257.82925     -0.26955866     -0.93599905             
e   0.5312934      Incl.   33.28448     -0.58153702     -0.02914626             
P   3.27           H   22.76          G   0.15           U   9                  
Residuals in seconds of arc
220619 F52  0.1+  0.0     220620 H36  0.3-  0.2+    220623 H21  0.1+  0.1-
220619 F52  0.1+  0.0     220620 H36  0.2-  0.9-    220623 H21  0.1-  0.2+
220619 F52  0.2-  0.2-    220620 568  0.0   0.0     220623 H21  0.4-  0.1-
220619 F52  0.0   0.2+    220620 568  0.0   0.0     220623 I52  0.0   0.3+
220620 H21  0.2+  0.1+    220620 568  0.0   0.0     220623 I52  0.1-  0.1+
220620 H21  0.3-  0.1-    220621 H21  0.0   0.5-    220623 I52  0.1+  0.2-
220620 H21  0.2+  0.1+    220621 H21  0.3+  0.1-    220623 I52  0.3+  0.2-
220620 H36  0.3+  0.6+    220621 H21  0.1+  0.0

Ephemeris:
2022 MT                  a,e,i = 2.20, 0.53, 33                  q = 1.0328
Date    TT    R. A. (2000) Decl.     Delta      r    Elong.  Phase     V
2022 05 24    11 28 33.9 -85 39 51   0.1898  1.0985   112.2    58.6    21.5
...
2022 06 08    16 23 48.5 -31 08 50   0.1587  1.1706   167.9    10.5    19.8
...
2022 06 16    16 33 04.5 -07 07 12   0.2139  1.2165   157.8    18.4    20.8
...
2022 06 22    16 37 31.5 +02 49 42   0.2730  1.2535   146.8    26.4    21.6
2022 06 23    16 38 11.4 +04 02 00   0.2837  1.2599   145.3    27.4    21.7
2022 06 24    16 38 50.5 +05 08 16   0.2945  1.2663   143.9    28.2    21.9
...
2022 06 30    16 42 39.5 +10 05 38   0.3630  1.3056   136.9    32.1    22.5
...
2022 07 08    16 47 57.0 +13 44 52   0.4604  1.3600   130.2    34.8    23.2
...
2022 07 23    16 59 36.2 +16 08 02   0.6546  1.4660   121.2    36.4    24.2

M. P. C. Staff               (C) Copyright 2022 MPC           M.P.E.C. 2022-M40




More information about the Iaude mailing list